Time,TemperatureF,DewpointF,PressureIn,WindDirection,WindDirectionDegrees,WindSpeedMPH,WindSpeedGustMPH,Humidity,HourlyPrecipIn,Conditions,Clouds,dailyrainin,SoftwareType,DateUTC
2013-07-25 00:01:00,65.0,58.0,29.95,NNE,22,2.0,12.0,78,0.00,,,0.00,Weather View 32 v70,2013-07-25 04:01:00,
2013-07-25 00:02:00,65.0,58.3,29.95,NNE,22,5.0,12.0,79,0.00,,,0.00,Weather View 32 v70,2013-07-25 04:02:00,
2013-07-25 00:03:00,65.0,58.0,29.95,North,360,4.0,12.0,78,0.00,,,0.00,Weather View 32 v70,2013-07-25 04:03:00,
2013-07-25 00:08:00,65.0,58.3,29.95,NE,45,3.0,12.0,79,0.00,,,0.00,Weather View 32 v70,2013-07-25 04:08:00,
2013-07-25 00:13:00,65.0,58.3,29.95,NE,45,1.0,12.0,79,0.00,,,0.00,Weather View 32 v70,2013-07-25 04:13:00,
2013-07-25 00:18:00,65.0,58.3,29.95,NE,45,0.0,12.0,79,0.00,,,0.00,Weather View 32 v70,2013-07-25 04:18:00,
2013-07-25 00:23:00,64.0,57.3,29.95,North,360,5.0,12.0,79,0.00,,,0.00,Weather View 32 v70,2013-07-25 04:23:00,
2013-07-25 00:28:00,64.0,57.7,29.96,WNW,292,2.0,12.0,80,0.00,,,0.00,Weather View 32 v70,2013-07-25 04:28:00,
2013-07-25 00:33:00,64.0,58.0,29.96,WSW,247,4.0,10.0,81,0.00,,,0.00,Weather View 32 v70,2013-07-25 04:33:00,
2013-07-25 00:38:00,64.0,58.0,29.96,NNW,337,1.0,10.0,81,0.00,,,0.00,Weather View 32 v70,2013-07-25 04:38:00,
2013-07-25 00:44:00,64.0,58.0,29.96,NW,315,0.0,10.0,81,0.00,,,0.00,Weather View 32 v70,2013-07-25 04:44:00,
2013-07-25 00:49:00,64.0,58.0,29.96,NE,45,6.0,11.0,81,0.00,,,0.00,Weather View 32 v70,2013-07-25 04:49:00,
2013-07-25 00:54:00,64.0,58.4,29.96,NNE,22,6.0,11.0,82,0.00,,,0.00,Weather View 32 v70,2013-07-25 04:54:00,
2013-07-25 00:59:00,64.0,58.4,29.97,NNE,22,7.0,11.0,82,0.00,,,0.00,Weather View 32 v70,2013-07-25 04:59:00,
2013-07-25 01:04:00,64.0,58.7,29.97,North,360,0.0,11.0,83,0.00,,,0.00,Weather View 32 v70,2013-07-25 05:04:00,
2013-07-25 01:09:00,64.0,58.7,29.97,NE,45,1.0,11.0,83,0.00,,,0.00,Weather View 32 v70,2013-07-25 05:09:00,
2013-07-25 01:14:00,64.0,58.4,29.97,NNE,22,7.0,11.0,82,0.00,,,0.00,Weather View 32 v70,2013-07-25 05:14:00,
2013-07-25 01:19:00,64.0,58.4,29.97,North,360,6.0,12.0,82,0.00,,,0.00,Weather View 32 v70,2013-07-25 05:19:00,
2013-07-25 01:24:00,64.0,58.4,29.97,North,360,6.0,12.0,82,0.00,,,0.00,Weather View 32 v70,2013-07-25 05:24:00,
2013-07-25 01:29:00,64.0,58.0,29.97,NE,45,6.0,14.0,81,0.00,,,0.00,Weather View 32 v70,2013-07-25 05:29:00,
2013-07-25 01:34:00,64.0,58.0,29.97,NNE,22,2.0,14.0,81,0.00,,,0.00,Weather View 32 v70,2013-07-25 05:34:00,
2013-07-25 01:39:00,64.0,57.3,29.97,ENE,67,2.0,14.0,79,0.00,,,0.00,Weather View 32 v70,2013-07-25 05:39:00,
2013-07-25 01:44:00,63.0,55.7,29.97,NNW,337,9.0,18.0,77,0.00,,,0.00,Weather View 32 v70,2013-07-25 05:44:00,
2013-07-25 01:49:00,63.0,55.7,29.98,NE,45,8.0,18.0,77,0.00,,,0.00,Weather View 32 v70,2013-07-25 05:49:00,
2013-07-25 01:55:00,63.0,55.7,29.98,NNE,22,7.0,18.0,77,0.00,,,0.00,Weather View 32 v70,2013-07-25 05:55:00,
2013-07-25 02:00:00,63.0,55.7,29.99,ENE,67,7.0,18.0,77,0.00,,,0.00,Weather View 32 v70,2013-07-25 06:00:00,
2013-07-25 02:05:00,62.0,54.7,29.99,North,360,5.0,18.0,77,0.00,,,0.00,Weather View 32 v70,2013-07-25 06:05:00,
2013-07-25 02:10:00,62.0,54.7,29.99,North,360,7.0,18.0,77,0.00,,,0.00,Weather View 32 v70,2013-07-25 06:10:00,
2013-07-25 02:15:00,62.0,54.7,29.99,NNE,22,5.0,18.0,77,0.00,,,0.00,Weather View 32 v70,2013-07-25 06:15:00,
2013-07-25 02:20:00,62.0,54.7,29.99,North,360,9.0,18.0,77,0.00,,,0.00,Weather View 32 v70,2013-07-25 06:20:00,
2013-07-25 02:25:00,62.0,55.0,29.99,NNE,22,10.0,18.0,78,0.00,,,0.00,Weather View 32 v70,2013-07-25 06:25:00,
2013-07-25 02:32:00,61.0,54.4,29.99,ENE,67,6.0,18.0,79,0.00,,,0.00,Weather View 32 v70,2013-07-25 06:32:00,
2013-07-25 02:37:00,61.0,54.4,29.99,NNE,22,7.0,18.0,79,0.00,,,0.00,Weather View 32 v70,2013-07-25 06:37:00,
2013-07-25 02:42:00,61.0,54.4,29.99,NNW,337,3.0,17.0,79,0.00,,,0.00,Weather View 32 v70,2013-07-25 06:42:00,
2013-07-25 02:47:00,61.0,54.4,30.00,NE,45,2.0,17.0,79,0.00,,,0.00,Weather View 32 v70,2013-07-25 06:47:00,
2013-07-25 02:52:00,61.0,54.4,30.00,NNE,22,6.0,17.0,79,0.00,,,0.00,Weather View 32 v70,2013-07-25 06:52:00,
2013-07-25 02:57:00,61.0,54.1,30.00,NE,45,9.0,17.0,78,0.00,,,0.00,Weather View 32 v70,2013-07-25 06:57:00,
2013-07-25 03:03:00,61.0,53.7,30.00,South,180,0.0,17.0,77,0.00,,,0.00,Weather View 32 v70,2013-07-25 07:03:00,
2013-07-25 03:08:00,61.0,53.7,30.00,NE,45,6.0,17.0,77,0.00,,,0.00,Weather View 32 v70,2013-07-25 07:08:00,
2013-07-25 03:13:00,61.0,53.7,30.00,North,360,6.0,16.0,77,0.00,,,0.00,Weather View 32 v70,2013-07-25 07:13:00,
2013-07-25 03:18:00,60.0,52.8,30.01,NE,45,6.0,16.0,77,0.00,,,0.00,Weather View 32 v70,2013-07-25 07:18:00,
2013-07-25 03:23:00,60.0,52.8,30.01,East,90,2.0,16.0,77,0.00,,,0.00,Weather View 32 v70,2013-07-25 07:23:00,
2013-07-25 03:28:00,60.0,52.0,30.01,East,90,3.0,16.0,75,0.00,,,0.00,Weather View 32 v70,2013-07-25 07:28:00,
2013-07-25 03:33:00,60.0,51.7,30.01,NE,45,7.0,16.0,74,0.00,,,0.00,Weather View 32 v70,2013-07-25 07:33:00,
2013-07-25 03:39:00,60.0,50.9,30.01,North,360,8.0,15.0,72,0.00,,,0.00,Weather View 32 v70,2013-07-25 07:39:00,
2013-07-25 03:44:00,60.0,50.5,30.01,NNE,22,6.0,13.0,71,0.00,,,0.00,Weather View 32 v70,2013-07-25 07:44:00,
2013-07-25 03:49:00,60.0,50.2,30.01,NE,45,6.0,13.0,70,0.00,,,0.00,Weather View 32 v70,2013-07-25 07:49:00,
2013-07-25 03:54:00,60.0,50.2,30.01,NNE,22,10.0,16.0,70,0.00,,,0.00,Weather View 32 v70,2013-07-25 07:54:00,
2013-07-25 03:59:00,60.0,49.8,30.01,North,360,5.0,16.0,69,0.00,,,0.00,Weather View 32 v70,2013-07-25 07:59:00,
2013-07-25 04:04:00,60.0,50.2,30.01,NNE,22,4.0,16.0,70,0.00,,,0.00,Weather View 32 v70,2013-07-25 08:04:00,
2013-07-25 04:09:00,60.0,50.2,30.01,NNW,337,8.0,16.0,70,0.00,,,0.00,Weather View 32 v70,2013-07-25 08:09:00,
2013-07-25 04:14:00,60.0,50.2,30.01,NNE,22,10.0,16.0,70,0.00,,,0.00,Weather View 32 v70,2013-07-25 08:14:00,
2013-07-25 04:19:00,60.0,50.2,30.01,NE,45,7.0,16.0,70,0.00,,,0.00,Weather View 32 v70,2013-07-25 08:19:00,
2013-07-25 04:24:00,59.0,49.2,30.01,NE,45,0.0,16.0,70,0.00,,,0.00,Weather View 32 v70,2013-07-25 08:24:00,
2013-07-25 04:29:00,59.0,48.8,30.01,North,360,6.0,16.0,69,0.00,,,0.00,Weather View 32 v70,2013-07-25 08:29:00,
2013-07-25 04:34:00,59.0,48.8,30.01,NE,45,7.0,16.0,69,0.00,,,0.00,Weather View 32 v70,2013-07-25 08:34:00,
2013-07-25 04:39:00,59.0,48.8,30.02,NE,45,6.0,16.0,69,0.00,,,0.00,Weather View 32 v70,2013-07-25 08:39:00,
2013-07-25 04:44:00,59.0,48.8,30.02,North,360,10.0,16.0,69,0.00,,,0.00,Weather View 32 v70,2013-07-25 08:44:00,
2013-07-25 04:49:00,59.0,48.8,30.03,WNW,292,0.0,16.0,69,0.00,,,0.00,Weather View 32 v70,2013-07-25 08:49:00,
2013-07-25 04:54:00,59.0,48.8,30.03,ENE,67,6.0,15.0,69,0.00,,,0.00,Weather View 32 v70,2013-07-25 08:54:00,
2013-07-25 04:59:00,59.0,48.8,30.03,North,360,6.0,15.0,69,0.00,,,0.00,Weather View 32 v70,2013-07-25 08:59:00,
2013-07-25 05:04:00,59.0,49.2,30.03,North,360,8.0,15.0,70,0.00,,,0.00,Weather View 32 v70,2013-07-25 09:04:00,
2013-07-25 05:09:00,59.0,49.2,30.04,NNE,22,7.0,16.0,70,0.00,,,0.00,Weather View 32 v70,2013-07-25 09:09:00,
2013-07-25 05:14:00,59.0,49.2,30.04,North,360,8.0,16.0,70,0.00,,,0.00,Weather View 32 v70,2013-07-25 09:14:00,
2013-07-25 05:19:00,59.0,49.6,30.04,NE,45,2.0,16.0,71,0.00,,,0.00,Weather View 32 v70,2013-07-25 09:19:00,
2013-07-25 05:24:00,59.0,49.6,30.04,ENE,67,1.0,16.0,71,0.00,,,0.00,Weather View 32 v70,2013-07-25 09:24:00,
2013-07-25 05:29:00,59.0,49.2,30.04,NE,45,5.0,16.0,70,0.00,,,0.00,Weather View 32 v70,2013-07-25 09:29:00,
2013-07-25 05:34:00,59.0,49.2,30.04,East,90,4.0,16.0,70,0.00,,,0.00,Weather View 32 v70,2013-07-25 09:34:00,
2013-07-25 05:39:00,59.0,49.6,30.04,NNE,22,5.0,16.0,71,0.00,,,0.00,Weather View 32 v70,2013-07-25 09:39:00,
2013-07-25 05:44:00,59.0,49.6,30.04,North,360,5.0,16.0,71,0.00,,,0.00,Weather View 32 v70,2013-07-25 09:44:00,
2013-07-25 05:49:00,59.0,49.6,30.05,NE,45,8.0,16.0,71,0.00,,,0.00,Weather View 32 v70,2013-07-25 09:49:00,
2013-07-25 05:54:00,59.0,49.6,30.05,North,360,4.0,16.0,71,0.00,,,0.00,Weather View 32 v70,2013-07-25 09:54:00,
2013-07-25 05:59:00,59.0,49.6,30.05,ENE,67,0.0,16.0,71,0.00,,,0.00,Weather View 32 v70,2013-07-25 09:59:00,
2013-07-25 06:05:00,58.0,48.6,30.05,NE,45,7.0,16.0,71,0.00,,,0.00,Weather View 32 v70,2013-07-25 10:05:00,
2013-07-25 06:10:00,58.0,48.6,30.05,North,360,7.0,15.0,71,0.00,,,0.00,Weather View 32 v70,2013-07-25 10:10:00,
2013-07-25 06:15:00,58.0,48.6,30.05,North,360,6.0,15.0,71,0.00,,,0.00,Weather View 32 v70,2013-07-25 10:15:00,
2013-07-25 06:20:00,58.0,48.6,30.05,North,360,10.0,15.0,71,0.00,,,0.00,Weather View 32 v70,2013-07-25 10:20:00,
2013-07-25 06:25:00,58.0,48.6,30.05,North,360,7.0,15.0,71,0.00,,,0.00,Weather View 32 v70,2013-07-25 10:25:00,
2013-07-25 06:30:00,58.0,49.0,30.05,North,360,6.0,15.0,72,0.00,,,0.00,Weather View 32 v70,2013-07-25 10:30:00,
2013-07-25 06:35:00,58.0,49.0,30.05,North,360,8.0,15.0,72,0.00,,,0.00,Weather View 32 v70,2013-07-25 10:35:00,
2013-07-25 06:40:00,58.0,49.0,30.05,North,360,9.0,15.0,72,0.00,,,0.00,Weather View 32 v70,2013-07-25 10:40:00,
2013-07-25 06:45:00,58.0,49.0,30.05,NE,45,6.0,15.0,72,0.00,,,0.00,Weather View 32 v70,2013-07-25 10:45:00,
2013-07-25 06:50:00,58.0,49.4,30.05,East,90,2.0,15.0,73,0.00,,,0.00,Weather View 32 v70,2013-07-25 10:50:00,
2013-07-25 06:55:00,58.0,49.4,30.05,NE,45,7.0,15.0,73,0.00,,,0.00,Weather View 32 v70,2013-07-25 10:55:00,
2013-07-25 07:00:00,58.0,49.4,30.06,North,360,2.0,15.0,73,0.00,,,0.00,Weather View 32 v70,2013-07-25 11:00:00,
2013-07-25 07:05:00,58.0,49.4,30.06,NNE,22,9.0,15.0,73,0.00,,,0.00,Weather View 32 v70,2013-07-25 11:05:00,
2013-07-25 07:10:00,58.0,49.4,30.06,NW,315,6.0,15.0,73,0.00,,,0.00,Weather View 32 v70,2013-07-25 11:10:00,
2013-07-25 07:15:00,58.0,49.7,30.06,SE,135,3.0,15.0,74,0.00,,,0.00,Weather View 32 v70,2013-07-25 11:15:00,
2013-07-25 07:20:00,58.0,49.4,30.05,NE,45,9.0,15.0,73,0.00,,,0.00,Weather View 32 v70,2013-07-25 11:20:00,
2013-07-25 07:25:00,58.0,49.4,30.05,East,90,5.0,15.0,73,0.00,,,0.00,Weather View 32 v70,2013-07-25 11:25:00,
2013-07-25 07:30:00,58.0,49.4,30.07,North,360,7.0,14.0,73,0.00,,,0.00,Weather View 32 v70,2013-07-25 11:30:00,
2013-07-25 07:35:00,58.0,49.4,30.07,NNE,22,8.0,14.0,73,0.00,,,0.00,Weather View 32 v70,2013-07-25 11:35:00,
2013-07-25 07:40:00,58.0,49.7,30.07,North,360,6.0,14.0,74,0.00,,,0.00,Weather View 32 v70,2013-07-25 11:40:00,
2013-07-25 07:45:00,58.0,49.7,30.07,NNE,22,6.0,14.0,74,0.00,,,0.00,Weather View 32 v70,2013-07-25 11:45:00,
2013-07-25 07:50:00,58.0,50.1,30.07,North,360,2.0,12.0,75,0.00,,,0.00,Weather View 32 v70,2013-07-25 11:50:00,
2013-07-25 07:55:00,58.0,50.1,30.07,NNW,337,6.0,13.0,75,0.00,,,0.00,Weather View 32 v70,2013-07-25 11:55:00,
2013-07-25 08:00:00,58.0,50.1,30.07,North,360,11.0,13.0,75,0.00,,,0.00,Weather View 32 v70,2013-07-25 12:00:00,
2013-07-25 08:05:00,58.0,50.1,30.07,East,90,2.0,13.0,75,0.00,,,0.00,Weather View 32 v70,2013-07-25 12:05:00,
2013-07-25 08:10:00,58.0,50.5,30.07,North,360,5.0,13.0,76,0.00,,,0.00,Weather View 32 v70,2013-07-25 12:10:00,
2013-07-25 08:15:00,58.0,50.5,30.07,North,360,5.0,13.0,76,0.00,,,0.00,Weather View 32 v70,2013-07-25 12:15:00,
2013-07-25 08:20:00,58.0,50.5,30.08,North,360,9.0,13.0,76,0.00,,,0.00,Weather View 32 v70,2013-07-25 12:20:00,
2013-07-25 08:25:00,58.0,50.5,30.08,NNW,337,6.0,13.0,76,0.00,,,0.00,Weather View 32 v70,2013-07-25 12:25:00,
2013-07-25 08:30:00,58.0,50.5,30.08,NE,45,0.0,13.0,76,0.00,,,0.00,Weather View 32 v70,2013-07-25 12:30:00,
2013-07-25 08:36:00,58.0,50.5,30.08,North,360,6.0,13.0,76,0.00,,,0.00,Weather View 32 v70,2013-07-25 12:36:00,
2013-07-25 08:41:00,58.0,50.5,30.08,NNE,22,5.0,13.0,76,0.00,,,0.00,Weather View 32 v70,2013-07-25 12:41:00,
2013-07-25 08:46:00,58.0,50.5,30.08,NNW,337,8.0,13.0,76,0.00,,,0.00,Weather View 32 v70,2013-07-25 12:46:00,
2013-07-25 08:51:00,58.0,50.5,30.09,ENE,67,1.0,13.0,76,0.00,,,0.00,Weather View 32 v70,2013-07-25 12:51:00,
2013-07-25 08:56:00,58.0,50.5,30.09,SE,135,4.0,13.0,76,0.00,,,0.00,Weather View 32 v70,2013-07-25 12:56:00,
2013-07-25 09:01:00,58.0,50.5,30.09,North,360,1.0,13.0,76,0.00,,,0.00,Weather View 32 v70,2013-07-25 13:01:00,
2013-07-25 09:06:00,58.0,50.8,30.09,East,90,3.0,13.0,77,0.00,,,0.00,Weather View 32 v70,2013-07-25 13:06:00,
2013-07-25 09:11:00,58.0,50.5,30.10,North,360,8.0,13.0,76,0.00,,,0.00,Weather View 32 v70,2013-07-25 13:11:00,
2013-07-25 09:16:00,58.0,50.5,30.09,ENE,67,0.0,13.0,76,0.00,,,0.00,Weather View 32 v70,2013-07-25 13:16:00,
2013-07-25 09:21:00,58.0,51.2,30.09,SSE,157,0.0,13.0,78,0.00,,,0.00,Weather View 32 v70,2013-07-25 13:21:00,
2013-07-25 09:26:00,59.0,52.1,30.09,East,90,6.0,13.0,78,0.00,,,0.00,Weather View 32 v70,2013-07-25 13:26:00,
2013-07-25 09:31:00,58.0,51.2,30.09,East,90,4.0,13.0,78,0.00,,,0.00,Weather View 32 v70,2013-07-25 13:31:00,
2013-07-25 09:37:00,59.0,51.8,30.09,NNW,337,9.0,13.0,77,0.00,,,0.00,Weather View 32 v70,2013-07-25 13:37:00,
2013-07-25 09:42:00,59.0,52.1,30.09,NNW,337,7.0,13.0,78,0.00,,,0.00,Weather View 32 v70,2013-07-25 13:42:00,
2013-07-25 09:47:00,59.0,51.8,30.09,East,90,4.0,13.0,77,0.00,,,0.00,Weather View 32 v70,2013-07-25 13:47:00,
2013-07-25 09:52:00,59.0,52.1,30.09,NNW,337,5.0,13.0,78,0.00,,,0.00,Weather View 32 v70,2013-07-25 13:52:00,
2013-07-25 09:57:00,59.0,52.1,30.10,North,360,6.0,13.0,78,0.00,,,0.00,Weather View 32 v70,2013-07-25 13:57:00,
2013-07-25 10:02:00,59.0,52.1,30.10,NE,45,6.0,13.0,78,0.00,,,0.00,Weather View 32 v70,2013-07-25 14:02:00,
2013-07-25 10:07:00,59.0,52.1,30.10,East,90,5.0,13.0,78,0.00,,,0.00,Weather View 32 v70,2013-07-25 14:07:00,
2013-07-25 10:12:00,59.0,52.5,30.10,NE,45,6.0,13.0,79,0.00,,,0.00,Weather View 32 v70,2013-07-25 14:12:00,
2013-07-25 10:17:00,59.0,52.1,30.10,North,360,5.0,13.0,78,0.00,,,0.00,Weather View 32 v70,2013-07-25 14:17:00,
2013-07-25 10:22:00,59.0,52.5,30.10,North,360,6.0,13.0,79,0.00,,,0.00,Weather View 32 v70,2013-07-25 14:22:00,
2013-07-25 10:27:00,59.0,52.8,30.10,North,360,6.0,13.0,80,0.00,,,0.00,Weather View 32 v70,2013-07-25 14:27:00,
2013-07-25 10:32:00,59.0,52.8,30.10,North,360,6.0,13.0,80,0.00,,,0.00,Weather View 32 v70,2013-07-25 14:32:00,
2013-07-25 10:37:00,59.0,52.8,30.10,North,360,1.0,13.0,80,0.00,,,0.00,Weather View 32 v70,2013-07-25 14:37:00,
2013-07-25 10:42:00,59.0,52.8,30.10,NE,45,4.0,13.0,80,0.00,,,0.00,Weather View 32 v70,2013-07-25 14:42:00,
2013-07-25 10:47:00,59.0,53.2,30.10,North,360,3.0,13.0,81,0.00,,,0.00,Weather View 32 v70,2013-07-25 14:47:00,
2013-07-25 10:52:00,59.0,53.5,30.10,NE,45,1.0,12.0,82,0.00,,,0.00,Weather View 32 v70,2013-07-25 14:52:00,
2013-07-25 10:57:00,59.0,52.8,30.10,East,90,2.0,11.0,80,0.00,,,0.00,Weather View 32 v70,2013-07-25 14:57:00,
2013-07-25 11:03:00,59.0,53.5,30.10,NE,45,2.0,10.0,82,0.00,,,0.00,Weather View 32 v70,2013-07-25 15:03:00,
2013-07-25 11:08:00,59.0,53.5,30.10,NE,45,0.0,10.0,82,0.00,,,0.00,Weather View 32 v70,2013-07-25 15:08:00,
2013-07-25 11:13:00,59.0,53.5,30.10,NNW,337,4.0,10.0,82,0.00,,,0.00,Weather View 32 v70,2013-07-25 15:13:00,
2013-07-25 11:18:00,60.0,54.5,30.10,NE,45,2.0,10.0,82,0.00,,,0.00,Weather View 32 v70,2013-07-25 15:18:00,
2013-07-25 11:23:00,60.0,54.1,30.10,East,90,4.0,10.0,81,0.00,,,0.00,Weather View 32 v70,2013-07-25 15:23:00,
2013-07-25 11:28:00,60.0,54.1,30.10,North,360,3.0,11.0,81,0.00,,,0.00,Weather View 32 v70,2013-07-25 15:28:00,
2013-07-25 11:33:00,60.0,53.8,30.10,North,360,7.0,12.0,80,0.00,,,0.00,Weather View 32 v70,2013-07-25 15:33:00,
2013-07-25 11:38:00,60.0,54.5,30.10,NE,45,2.0,12.0,82,0.00,,,0.00,Weather View 32 v70,2013-07-25 15:38:00,
2013-07-25 11:43:00,60.0,54.5,30.10,East,90,3.0,12.0,82,0.00,,,0.00,Weather View 32 v70,2013-07-25 15:43:00,
2013-07-25 11:48:00,60.0,54.5,30.10,WNW,292,0.0,12.0,82,0.00,,,0.00,Weather View 32 v70,2013-07-25 15:48:00,
2013-07-25 11:53:00,60.0,54.5,30.10,East,90,1.0,12.0,82,0.00,,,0.00,Weather View 32 v70,2013-07-25 15:53:00,
2013-07-25 11:58:00,61.0,55.1,30.09,North,360,3.0,12.0,81,0.00,,,0.00,Weather View 32 v70,2013-07-25 15:58:00,
2013-07-25 12:03:00,61.0,55.5,30.09,NNW,337,7.0,12.0,82,0.00,,,0.00,Weather View 32 v70,2013-07-25 16:03:00,
2013-07-25 12:08:00,61.0,55.5,30.10,North,360,0.0,12.0,82,0.00,,,0.00,Weather View 32 v70,2013-07-25 16:08:00,
2013-07-25 12:13:00,61.0,55.5,30.10,NNE,22,5.0,12.0,82,0.00,,,0.00,Weather View 32 v70,2013-07-25 16:13:00,
2013-07-25 12:18:00,60.0,54.5,30.10,NNE,22,2.0,12.0,82,0.00,,,0.00,Weather View 32 v70,2013-07-25 16:18:00,
2013-07-25 12:23:00,60.0,55.1,30.10,SE,135,2.0,12.0,84,0.00,,,0.00,Weather View 32 v70,2013-07-25 16:23:00,
2013-07-25 12:28:00,60.0,55.8,30.11,NE,45,0.0,12.0,86,0.00,,,0.00,Weather View 32 v70,2013-07-25 16:28:00,
2013-07-25 12:34:00,60.0,56.1,30.11,East,90,2.0,10.0,87,0.00,,,0.00,Weather View 32 v70,2013-07-25 16:34:00,
2013-07-25 12:39:00,59.0,56.1,30.11,East,90,0.0,10.0,90,0.00,,,0.00,Weather View 32 v70,2013-07-25 16:39:00,
2013-07-25 12:44:00,59.0,56.7,30.11,North,360,2.0,10.0,92,0.00,,,0.00,Weather View 32 v70,2013-07-25 16:44:00,
2013-07-25 12:49:00,59.0,56.4,30.12,North,360,0.0,10.0,91,0.01,,,0.01,Weather View 32 v70,2013-07-25 16:49:00,
2013-07-25 12:54:00,59.0,56.7,30.12,West,270,0.0,10.0,92,0.01,,,0.01,Weather View 32 v70,2013-07-25 16:54:00,
2013-07-25 12:59:00,59.0,57.3,30.12,West,270,0.0,10.0,94,0.02,,,0.02,Weather View 32 v70,2013-07-25 16:59:00,
2013-07-25 13:04:00,58.0,56.3,30.12,NNW,337,2.0,10.0,94,0.02,,,0.02,Weather View 32 v70,2013-07-25 17:04:00,
2013-07-25 13:09:00,58.0,56.3,30.11,NNE,22,2.0,10.0,94,0.02,,,0.02,Weather View 32 v70,2013-07-25 17:09:00,
2013-07-25 13:16:00,58.0,56.6,30.11,NNW,337,1.0,10.0,95,0.02,,,0.02,Weather View 32 v70,2013-07-25 17:16:00,
2013-07-25 13:21:00,59.0,57.9,30.11,NE,45,5.0,9.0,96,0.02,,,0.02,Weather View 32 v70,2013-07-25 17:21:00,
2013-07-25 13:26:00,59.0,57.6,30.11,NE,45,1.0,7.0,95,0.02,,,0.02,Weather View 32 v70,2013-07-25 17:26:00,
2013-07-25 13:31:00,59.0,57.9,30.11,NE,45,0.0,7.0,96,0.02,,,0.02,Weather View 32 v70,2013-07-25 17:31:00,
2013-07-25 13:36:00,60.0,59.4,30.10,WNW,292,1.0,7.0,98,0.02,,,0.02,Weather View 32 v70,2013-07-25 17:36:00,
2013-07-25 13:41:00,60.0,59.7,30.10,West,270,3.0,7.0,99,0.02,,,0.02,Weather View 32 v70,2013-07-25 17:41:00,
2013-07-25 13:46:00,60.0,59.7,30.10,NW,315,1.0,7.0,99,0.01,,,0.02,Weather View 32 v70,2013-07-25 17:46:00,
2013-07-25 13:51:00,60.0,60.0,30.10,NE,45,4.0,7.0,100,0.01,,,0.02,Weather View 32 v70,2013-07-25 17:51:00,
2013-07-25 13:56:00,61.0,60.7,30.09,NE,45,0.0,7.0,99,0.00,,,0.02,Weather View 32 v70,2013-07-25 17:56:00,
2013-07-25 14:02:00,61.0,59.0,30.09,North,360,6.0,9.0,93,0.00,,,0.02,Weather View 32 v70,2013-07-25 18:02:00,
2013-07-25 14:07:00,61.0,58.0,30.09,North,360,7.0,9.0,90,0.00,,,0.02,Weather View 32 v70,2013-07-25 18:07:00,
2013-07-25 14:12:00,61.0,59.3,30.09,ENE,67,0.0,9.0,94,0.00,,,0.02,Weather View 32 v70,2013-07-25 18:12:00,
2013-07-25 14:17:00,62.0,58.7,30.08,NNE,22,5.0,9.0,89,0.00,,,0.02,Weather View 32 v70,2013-07-25 18:17:00,
2013-07-25 14:22:00,62.0,57.8,30.08,North,360,5.0,12.0,86,0.00,,,0.02,Weather View 32 v70,2013-07-25 18:22:00,
2013-07-25 14:27:00,62.0,57.4,30.08,North,360,3.0,12.0,85,0.00,,,0.02,Weather View 32 v70,2013-07-25 18:27:00,
2013-07-25 14:32:00,62.0,58.1,30.08,NE,45,6.0,12.0,87,0.00,,,0.02,Weather View 32 v70,2013-07-25 18:32:00,
2013-07-25 14:37:00,62.0,57.4,30.07,North,360,3.0,12.0,85,0.00,,,0.02,Weather View 32 v70,2013-07-25 18:37:00,
2013-07-25 14:42:00,62.0,57.8,30.07,NE,45,3.0,12.0,86,0.00,,,0.02,Weather View 32 v70,2013-07-25 18:42:00,
2013-07-25 14:47:00,62.0,57.8,30.07,NNE,22,3.0,12.0,86,0.00,,,0.02,Weather View 32 v70,2013-07-25 18:47:00,
2013-07-25 14:52:00,63.0,59.1,30.07,North,360,0.0,12.0,87,0.00,,,0.02,Weather View 32 v70,2013-07-25 18:52:00,
2013-07-25 14:57:00,63.0,59.4,30.08,East,90,0.0,12.0,88,0.00,,,0.02,Weather View 32 v70,2013-07-25 18:57:00,
2013-07-25 15:03:00,63.0,58.1,30.08,East,90,3.0,12.0,84,0.00,,,0.02,Weather View 32 v70,2013-07-25 19:03:00,
2013-07-25 15:08:00,63.0,58.1,30.07,North,360,6.0,12.0,84,0.00,,,0.02,Weather View 32 v70,2013-07-25 19:08:00,
2013-07-25 15:13:00,63.0,57.7,30.07,East,90,0.0,12.0,83,0.00,,,0.02,Weather View 32 v70,2013-07-25 19:13:00,
2013-07-25 15:18:00,63.0,58.1,30.08,NE,45,1.0,12.0,84,0.00,,,0.02,Weather View 32 v70,2013-07-25 19:18:00,
2013-07-25 15:23:00,63.0,57.4,30.08,ENE,67,5.0,11.0,82,0.00,,,0.02,Weather View 32 v70,2013-07-25 19:23:00,
2013-07-25 15:28:00,63.0,57.1,30.08,NNW,337,1.0,10.0,81,0.00,,,0.02,Weather View 32 v70,2013-07-25 19:28:00,
2013-07-25 15:33:00,63.0,56.7,30.08,ENE,67,5.0,10.0,80,0.00,,,0.02,Weather View 32 v70,2013-07-25 19:33:00,
2013-07-25 15:38:00,63.0,57.1,30.08,NE,45,1.0,10.0,81,0.00,,,0.02,Weather View 32 v70,2013-07-25 19:38:00,
2013-07-25 15:43:00,63.0,58.1,30.08,NE,45,0.0,8.0,84,0.00,,,0.02,Weather View 32 v70,2013-07-25 19:43:00,
2013-07-25 15:48:00,63.0,58.1,30.09,North,360,4.0,8.0,84,0.00,,,0.02,Weather View 32 v70,2013-07-25 19:48:00,
2013-07-25 15:53:00,63.0,57.7,30.09,North,360,4.0,8.0,83,0.00,,,0.02,Weather View 32 v70,2013-07-25 19:53:00,
2013-07-25 15:58:00,63.0,57.7,30.08,North,360,5.0,8.0,83,0.00,,,0.02,Weather View 32 v70,2013-07-25 19:58:00,
2013-07-25 16:03:00,63.0,57.7,30.08,West,270,0.0,8.0,83,0.00,,,0.02,Weather View 32 v70,2013-07-25 20:03:00,
2013-07-25 16:08:00,63.0,58.4,30.08,NNE,22,0.0,8.0,85,0.00,,,0.02,Weather View 32 v70,2013-07-25 20:08:00,
2013-07-25 16:13:00,63.0,59.7,30.08,NNW,337,2.0,8.0,89,0.00,,,0.02,Weather View 32 v70,2013-07-25 20:13:00,
2013-07-25 16:19:00,63.0,60.0,30.07,NW,315,0.0,8.0,90,0.00,,,0.02,Weather View 32 v70,2013-07-25 20:19:00,
2013-07-25 16:24:00,63.0,58.7,30.07,North,360,3.0,8.0,86,0.00,,,0.02,Weather View 32 v70,2013-07-25 20:24:00,
2013-07-25 16:29:00,63.0,58.1,30.07,NNE,22,2.0,8.0,84,0.00,,,0.02,Weather View 32 v70,2013-07-25 20:29:00,
2013-07-25 16:35:00,63.0,58.1,30.07,North,360,5.0,8.0,84,0.00,,,0.02,Weather View 32 v70,2013-07-25 20:35:00,
2013-07-25 16:40:00,63.0,58.1,30.07,East,90,0.0,9.0,84,0.00,,,0.02,Weather View 32 v70,2013-07-25 20:40:00,
2013-07-25 16:45:00,63.0,58.1,30.07,NE,45,3.0,9.0,84,0.00,,,0.02,Weather View 32 v70,2013-07-25 20:45:00,
2013-07-25 16:50:00,63.0,58.1,30.06,North,360,3.0,9.0,84,0.00,,,0.02,Weather View 32 v70,2013-07-25 20:50:00,
2013-07-25 16:55:00,64.0,59.4,30.06,North,360,6.0,9.0,85,0.00,,,0.02,Weather View 32 v70,2013-07-25 20:55:00,
2013-07-25 17:00:00,64.0,59.7,30.06,North,360,5.0,9.0,86,0.00,,,0.02,Weather View 32 v70,2013-07-25 21:00:00,
2013-07-25 17:05:00,64.0,60.0,30.06,NNE,22,1.0,9.0,87,0.00,,,0.02,Weather View 32 v70,2013-07-25 21:05:00,
2013-07-25 17:10:00,64.0,60.4,30.06,SE,135,3.0,9.0,88,0.00,,,0.02,Weather View 32 v70,2013-07-25 21:10:00,
2013-07-25 17:15:00,64.0,61.3,30.06,NNE,22,0.0,9.0,91,0.00,,,0.02,Weather View 32 v70,2013-07-25 21:15:00,
2013-07-25 17:20:00,64.0,61.3,30.06,East,90,0.0,9.0,91,0.00,,,0.02,Weather View 32 v70,2013-07-25 21:20:00,
2013-07-25 17:26:00,64.0,61.0,30.06,East,90,0.0,9.0,90,0.00,,,0.02,Weather View 32 v70,2013-07-25 21:26:00,
2013-07-25 17:31:00,64.0,60.7,30.06,East,90,3.0,9.0,89,0.00,,,0.02,Weather View 32 v70,2013-07-25 21:31:00,
2013-07-25 17:36:00,64.0,61.0,30.06,NNE,22,0.0,9.0,90,0.00,,,0.02,Weather View 32 v70,2013-07-25 21:36:00,
2013-07-25 17:41:00,64.0,61.0,30.06,East,90,0.0,9.0,90,0.00,,,0.02,Weather View 32 v70,2013-07-25 21:41:00,
2013-07-25 17:46:00,64.0,61.3,30.06,East,90,0.0,9.0,91,0.00,,,0.02,Weather View 32 v70,2013-07-25 21:46:00,
2013-07-25 17:51:00,64.0,61.9,30.06,East,90,0.0,9.0,93,0.00,,,0.02,Weather View 32 v70,2013-07-25 21:51:00,
2013-07-25 17:56:00,63.0,60.6,30.06,ENE,67,2.0,9.0,92,0.00,,,0.02,Weather View 32 v70,2013-07-25 21:56:00,
2013-07-25 18:01:00,63.0,60.9,30.07,NE,45,4.0,9.0,93,0.00,,,0.02,Weather View 32 v70,2013-07-25 22:01:00,
2013-07-25 18:09:00,63.0,61.2,30.07,NE,45,2.0,6.0,94,0.00,,,0.02,Weather View 32 v70,2013-07-25 22:09:00,
2013-07-25 18:14:00,63.0,61.2,30.07,ESE,112,0.0,6.0,94,0.00,,,0.02,Weather View 32 v70,2013-07-25 22:14:00,
2013-07-25 18:20:00,63.0,61.5,30.07,NE,45,0.0,6.0,95,0.00,,,0.02,Weather View 32 v70,2013-07-25 22:20:00,
2013-07-25 18:25:00,62.0,60.5,30.07,NNW,337,0.0,6.0,95,0.01,,,0.03,Weather View 32 v70,2013-07-25 22:25:00,
2013-07-25 18:30:00,62.0,60.8,30.07,NE,45,1.0,6.0,96,0.01,,,0.03,Weather View 32 v70,2013-07-25 22:30:00,
2013-07-25 18:35:00,62.0,60.8,30.07,SSE,157,0.0,6.0,96,0.01,,,0.03,Weather View 32 v70,2013-07-25 22:35:00,
2013-07-25 18:40:00,62.0,61.1,30.08,East,90,3.0,7.0,97,0.01,,,0.03,Weather View 32 v70,2013-07-25 22:40:00,
2013-07-25 18:45:00,62.0,61.1,30.08,ESE,112,0.0,7.0,97,0.01,,,0.03,Weather View 32 v70,2013-07-25 22:45:00,
2013-07-25 18:50:00,62.0,61.1,30.09,North,360,3.0,7.0,97,0.01,,,0.03,Weather View 32 v70,2013-07-25 22:50:00,
2013-07-25 18:55:00,62.0,61.1,30.09,ENE,67,1.0,7.0,97,0.01,,,0.03,Weather View 32 v70,2013-07-25 22:55:00,
2013-07-25 19:00:00,62.0,61.1,30.08,ENE,67,2.0,7.0,97,0.01,,,0.03,Weather View 32 v70,2013-07-25 23:00:00,
2013-07-25 19:05:00,62.0,61.1,30.08,NNE,22,0.0,7.0,97,0.01,,,0.03,Weather View 32 v70,2013-07-25 23:05:00,
2013-07-25 19:10:00,61.0,60.1,30.08,NNE,22,7.0,8.0,97,0.01,,,0.03,Weather View 32 v70,2013-07-25 23:10:00,
2013-07-25 19:16:00,61.0,60.1,30.08,East,90,3.0,10.0,97,0.01,,,0.03,Weather View 32 v70,2013-07-25 23:16:00,
2013-07-25 19:21:00,61.0,60.1,30.09,NE,45,0.0,10.0,97,0.01,,,0.03,Weather View 32 v70,2013-07-25 23:21:00,
2013-07-25 19:26:00,61.0,60.4,30.09,NE,45,3.0,10.0,98,0.01,,,0.04,Weather View 32 v70,2013-07-25 23:26:00,
2013-07-25 19:31:00,61.0,60.4,30.09,North,360,4.0,10.0,98,0.01,,,0.04,Weather View 32 v70,2013-07-25 23:31:00,
2013-07-25 19:36:00,61.0,60.4,30.09,NNW,337,5.0,10.0,98,0.01,,,0.04,Weather View 32 v70,2013-07-25 23:36:00,
2013-07-25 19:41:00,61.0,60.7,30.09,NNE,22,4.0,10.0,99,0.01,,,0.04,Weather View 32 v70,2013-07-25 23:41:00,
2013-07-25 19:46:00,61.0,60.7,30.09,NW,315,5.0,10.0,99,0.01,,,0.04,Weather View 32 v70,2013-07-25 23:46:00,
2013-07-25 19:51:00,61.0,60.7,30.09,North,360,4.0,10.0,99,-0.03,,,0.05,Weather View 32 v70,2013-07-25 23:51:00,
2013-07-25 19:56:00,61.0,60.7,30.09,NE,45,1.0,10.0,99,0.02,,,0.05,Weather View 32 v70,2013-07-25 23:56:00,
2013-07-25 20:01:00,60.0,59.7,30.09,NNW,337,0.0,10.0,99,0.02,,,0.05,Weather View 32 v70,2013-07-26 00:01:00,
2013-07-25 20:06:00,60.0,59.7,30.09,ENE,67,3.0,10.0,99,0.02,,,0.05,Weather View 32 v70,2013-07-26 00:06:00,
2013-07-25 20:11:00,60.0,59.7,30.09,NNE,22,6.0,10.0,99,0.02,,,0.05,Weather View 32 v70,2013-07-26 00:11:00,
2013-07-25 20:18:00,60.0,59.7,30.10,NW,315,1.0,8.0,99,0.03,,,0.06,Weather View 32 v70,2013-07-26 00:18:00,
2013-07-25 20:23:00,60.0,60.0,30.10,East,90,5.0,8.0,100,0.03,,,0.06,Weather View 32 v70,2013-07-26 00:23:00,
2013-07-25 20:28:00,60.0,59.7,30.10,NE,45,3.0,8.0,99,0.02,,,0.06,Weather View 32 v70,2013-07-26 00:28:00,
2013-07-25 20:33:00,60.0,60.0,30.10,NNE,22,0.0,8.0,100,0.02,,,0.06,Weather View 32 v70,2013-07-26 00:33:00,
2013-07-25 20:38:00,60.0,60.0,30.10,North,360,3.0,8.0,100,0.02,,,0.06,Weather View 32 v70,2013-07-26 00:38:00,
2013-07-25 20:43:00,60.0,60.0,30.10,North,360,3.0,8.0,100,0.02,,,0.07,Weather View 32 v70,2013-07-26 00:43:00,
2013-07-25 20:48:00,60.0,60.0,30.09,North,360,3.0,8.0,100,0.03,,,0.07,Weather View 32 v70,2013-07-26 00:48:00,
2013-07-25 20:53:00,60.0,60.0,30.09,North,360,3.0,8.0,100,0.02,,,0.07,Weather View 32 v70,2013-07-26 00:53:00,
2013-07-25 20:58:00,60.0,60.0,30.09,NE,45,4.0,8.0,100,0.03,,,0.08,Weather View 32 v70,2013-07-26 00:58:00,
2013-07-25 21:05:00,60.0,60.0,30.09,NE,45,4.0,8.0,100,0.03,,,0.08,Weather View 32 v70,2013-07-26 01:05:00,
2013-07-25 21:10:00,60.0,60.0,30.09,North,360,0.0,8.0,100,0.03,,,0.08,Weather View 32 v70,2013-07-26 01:10:00,
2013-07-25 21:15:00,60.0,60.0,30.09,ENE,67,0.0,8.0,100,0.03,,,0.08,Weather View 32 v70,2013-07-26 01:15:00,
2013-07-25 21:20:00,60.0,60.0,30.10,North,360,3.0,8.0,100,0.02,,,0.08,Weather View 32 v70,2013-07-26 01:20:00,
2013-07-25 21:25:00,60.0,60.0,30.10,NNE,22,1.0,7.0,100,0.02,,,0.08,Weather View 32 v70,2013-07-26 01:25:00,
2013-07-25 21:30:00,60.0,60.0,30.10,North,360,2.0,7.0,100,0.02,,,0.08,Weather View 32 v70,2013-07-26 01:30:00,
2013-07-25 21:35:00,60.0,60.0,30.10,West,270,3.0,7.0,100,0.02,,,0.08,Weather View 32 v70,2013-07-26 01:35:00,
2013-07-25 21:40:00,60.0,60.0,30.10,NE,45,0.0,7.0,100,0.02,,,0.08,Weather View 32 v70,2013-07-26 01:40:00,
2013-07-25 21:45:00,60.0,60.0,30.10,North,360,5.0,7.0,100,0.01,,,0.08,Weather View 32 v70,2013-07-26 01:45:00,
2013-07-25 21:50:00,60.0,60.0,30.10,North,360,1.0,7.0,100,0.01,,,0.08,Weather View 32 v70,2013-07-26 01:50:00,
2013-07-25 21:55:00,60.0,60.0,30.10,North,360,5.0,9.0,100,0.01,,,0.08,Weather View 32 v70,2013-07-26 01:55:00,
2013-07-25 22:11:00,60.0,60.0,30.09,North,360,2.0,10.0,100,0.00,,,0.08,Weather View 32 v70,2013-07-26 02:11:00,
2013-07-25 22:17:00,60.0,60.0,30.09,North,360,1.0,10.0,100,0.00,,,0.08,Weather View 32 v70,2013-07-26 02:17:00,
2013-07-25 22:22:00,60.0,60.0,30.09,NNW,337,2.0,10.0,100,-0.08,,,0.08,Weather View 32 v70,2013-07-26 02:22:00,
2013-07-25 22:27:00,60.0,59.7,30.09,WNW,292,0.0,10.0,99,0.00,,,0.08,Weather View 32 v70,2013-07-26 02:27:00,
2013-07-25 22:32:00,60.0,60.0,30.09,East,90,4.0,10.0,100,0.00,,,0.08,Weather View 32 v70,2013-07-26 02:32:00,
2013-07-25 22:37:00,60.0,59.7,30.08,North,360,2.0,10.0,99,0.00,,,0.08,Weather View 32 v70,2013-07-26 02:37:00,
2013-07-25 22:42:00,60.0,60.0,30.08,ENE,67,1.0,10.0,100,0.00,,,0.08,Weather View 32 v70,2013-07-26 02:42:00,
2013-07-25 22:47:00,60.0,59.7,30.08,NNW,337,3.0,10.0,99,0.00,,,0.08,Weather View 32 v70,2013-07-26 02:47:00,
2013-07-25 22:52:00,60.0,60.0,30.08,North,360,4.0,10.0,100,0.00,,,0.08,Weather View 32 v70,2013-07-26 02:52:00,
2013-07-25 22:57:00,60.0,60.0,30.08,North,360,1.0,10.0,100,0.00,,,0.08,Weather View 32 v70,2013-07-26 02:57:00,
2013-07-25 23:02:00,60.0,60.0,30.08,NNW,337,0.0,10.0,100,0.01,,,0.09,Weather View 32 v70,2013-07-26 03:02:00,
2013-07-25 23:07:00,60.0,60.0,30.08,North,360,6.0,10.0,100,0.01,,,0.09,Weather View 32 v70,2013-07-26 03:07:00,
2013-07-25 23:12:00,60.0,60.0,30.08,NE,45,1.0,9.0,100,0.01,,,0.09,Weather View 32 v70,2013-07-26 03:12:00,
2013-07-25 23:17:00,60.0,60.0,30.08,NNW,337,3.0,9.0,100,0.01,,,0.09,Weather View 32 v70,2013-07-26 03:17:00,
2013-07-25 23:22:00,60.0,60.0,30.08,NNE,22,3.0,9.0,100,0.01,,,0.09,Weather View 32 v70,2013-07-26 03:22:00,
2013-07-25 23:27:00,60.0,60.0,30.08,NE,45,5.0,9.0,100,0.01,,,0.09,Weather View 32 v70,2013-07-26 03:27:00,
2013-07-25 23:32:00,60.0,60.0,30.08,NE,45,1.0,9.0,100,0.01,,,0.09,Weather View 32 v70,2013-07-26 03:32:00,
2013-07-25 23:37:00,60.0,60.0,30.08,NE,45,0.0,9.0,100,0.01,,,0.09,Weather View 32 v70,2013-07-26 03:37:00,
2013-07-25 23:43:00,60.0,60.0,30.08,North,360,6.0,9.0,100,0.01,,,0.09,Weather View 32 v70,2013-07-26 03:43:00,
2013-07-25 23:48:00,60.0,60.0,30.08,North,360,1.0,9.0,100,0.01,,,0.09,Weather View 32 v70,2013-07-26 03:48:00,
2013-07-25 23:54:00,60.0,60.0,30.08,NNW,337,4.0,9.0,100,0.01,,,0.09,Weather View 32 v70,2013-07-26 03:54:00,
2013-07-25 23:59:00,60.0,60.0,30.07,NE,45,3.0,9.0,100,0.01,,,0.09,Weather View 32 v70,2013-07-26 03:59:00,